QTR59N OTHH-OMDB

Flight info

Callsign QTR59N
Flight time 0h 47m
Altitude 21000
Route ALSEM L305 ITBUL M677 VUTEB
Aircraft B789/H-SDE1E2E3FGHIJ2J3J4J5M1RWXY/LB1D1

Departure

Time 2026-05-07 15:16
Airport Hamad International Airport (OTHH)

Arrival

Time 2026-05-07 16:03
Airport Dubai International Airport (OMDB)
Time Latitude Longitude Altitude Speed Heading
2026-05-07 13:57 25.26078 51.60987 27 ft 0 kts 157°
2026-05-07 14:01 25.26089 51.60982 27 ft 1 kts 157°
2026-05-07 14:02 25.26101 51.60976 26 ft 3 kts 157°
2026-05-07 14:02 25.26117 51.60969 26 ft 3 kts 160°
2026-05-07 14:02 25.26134 51.60963 25 ft 3 kts 171°
2026-05-07 14:02 25.26152 51.60960 27 ft 3 kts 171°
2026-05-07 14:03 25.26170 51.60957 25 ft 3 kts 179°
2026-05-07 14:03 25.26179 51.60958 26 ft 1 kts 205°
2026-05-07 14:03 25.26186 51.60963 25 ft 1 kts 230°
2026-05-07 14:03 25.26191 51.60972 27 ft 1 kts 256°
2026-05-07 14:04 25.26192 51.60982 27 ft 1 kts 281°
2026-05-07 14:04 25.26189 51.60991 27 ft 1 kts 306°
2026-05-07 14:04 25.26182 51.60998 27 ft 1 kts 332°
2026-05-07 14:04 25.26183 51.60998 27 ft 0 kts 330°
2026-05-07 14:05 25.26184 51.60998 27 ft 0 kts 330°
2026-05-07 14:05 25.26184 51.60997 27 ft 0 kts 330°
2026-05-07 14:13 25.26185 51.60997 27 ft 0 kts 329°
2026-05-07 14:18 25.26185 51.60996 27 ft 0 kts 329°
2026-05-07 14:22 25.26186 51.60996 27 ft 0 kts 329°
2026-05-07 14:30 25.26186 51.60995 27 ft 0 kts 328°
2026-05-07 14:31 25.26187 51.60995 27 ft 0 kts 328°
2026-05-07 14:39 25.26188 51.60995 27 ft 0 kts 327°
2026-05-07 14:42 25.26188 51.60994 27 ft 0 kts 327°
2026-05-07 14:48 25.26189 51.60994 27 ft 0 kts 327°
2026-05-07 14:53 25.26189 51.60993 27 ft 0 kts 327°
2026-05-07 14:54 25.26197 51.60978 27 ft 4 kts 281°
2026-05-07 14:54 25.26190 51.60947 27 ft 5 kts 233°
2026-05-07 14:55 25.26158 51.60948 27 ft 5 kts 152°
2026-05-07 14:55 25.26126 51.60965 27 ft 5 kts 157°
2026-05-07 14:55 25.26109 51.60973 27 ft 0 kts 156°
2026-05-07 14:58 25.26113 51.60971 27 ft 2 kts 156°
2026-05-07 14:58 25.26128 51.60964 27 ft 2 kts 156°
2026-05-07 14:59 25.26148 51.60954 27 ft 3 kts 156°
2026-05-07 14:59 25.26170 51.60950 27 ft 3 kts 197°
2026-05-07 14:59 25.26189 51.60965 26 ft 3 kts 244°
2026-05-07 14:59 25.26190 51.60968 27 ft 0 kts 249°
2026-05-07 15:01 25.26190 51.60967 27 ft 0 kts 249°
2026-05-07 15:01 25.26189 51.60967 27 ft 1 kts 249°
2026-05-07 15:01 25.26187 51.60959 26 ft 2 kts 250°
2026-05-07 15:01 25.26181 51.60939 27 ft 3 kts 256°
2026-05-07 15:02 25.26174 51.60910 27 ft 5 kts 255°
2026-05-07 15:02 25.26163 51.60870 27 ft 6 kts 251°
2026-05-07 15:02 25.26145 51.60821 27 ft 8 kts 246°
2026-05-07 15:02 25.26122 51.60762 27 ft 9 kts 248°
2026-05-07 15:03 25.26097 51.60691 28 ft 11 kts 249°
2026-05-07 15:03 25.26103 51.60616 28 ft 9 kts 310°
2026-05-07 15:03 25.26158 51.60584 28 ft 9 kts 336°
2026-05-07 15:03 25.26220 51.60556 28 ft 10 kts 338°
2026-05-07 15:04 25.26292 51.60524 28 ft 12 kts 338°
2026-05-07 15:04 25.26375 51.60488 28 ft 14 kts 339°
2026-05-07 15:04 25.26484 51.60442 27 ft 19 kts 337°
2026-05-07 15:04 25.26619 51.60378 27 ft 23 kts 338°
2026-05-07 15:05 25.26771 51.60312 27 ft 24 kts 339°
2026-05-07 15:05 25.26880 51.60265 27 ft 14 kts 339°
2026-05-07 15:05 25.26940 51.60224 27 ft 16 kts 307°
2026-05-07 15:05 25.26977 51.60113 27 ft 14 kts 317°
2026-05-07 15:06 25.27064 51.60079 27 ft 15 kts 343°
2026-05-07 15:06 25.27143 51.60034 27 ft 9 kts 302°
2026-05-07 15:06 25.27144 51.59988 27 ft 5 kts 246°
2026-05-07 15:06 25.27115 51.59972 27 ft 4 kts 176°
2026-05-07 15:07 25.27102 51.59982 27 ft 2 kts 126°
2026-05-07 15:07 25.27093 51.60017 27 ft 8 kts 103°
2026-05-07 15:07 25.27054 51.60089 27 ft 12 kts 122°
2026-05-07 15:07 25.27048 51.60161 27 ft 9 kts 75°
2026-05-07 15:08 25.27067 51.60225 27 ft 9 kts 69°
2026-05-07 15:08 25.27089 51.60289 27 ft 9 kts 69°
2026-05-07 15:08 25.27114 51.60362 27 ft 11 kts 69°
2026-05-07 15:08 25.27150 51.60462 27 ft 17 kts 68°
2026-05-07 15:09 25.27201 51.60599 27 ft 20 kts 68°
2026-05-07 15:09 25.27252 51.60735 27 ft 19 kts 67°
2026-05-07 15:09 25.27300 51.60866 27 ft 18 kts 68°
2026-05-07 15:09 25.27344 51.60990 27 ft 17 kts 69°
2026-05-07 15:10 25.27386 51.61111 27 ft 16 kts 69°
2026-05-07 15:10 25.27427 51.61224 27 ft 16 kts 71°
2026-05-07 15:10 25.27463 51.61336 27 ft 15 kts 68°
2026-05-07 15:10 25.27501 51.61443 27 ft 15 kts 69°
2026-05-07 15:11 25.27540 51.61546 27 ft 14 kts 64°
2026-05-07 15:11 25.27583 51.61586 27 ft 2 kts
2026-05-07 15:11 25.27594 51.61585 27 ft 2 kts 354°
2026-05-07 15:11 25.27624 51.61579 27 ft 10 kts 344°
2026-05-07 15:12 25.27715 51.61526 27 ft 17 kts 331°
2026-05-07 15:12 25.27820 51.61474 26 ft 16 kts 339°
2026-05-07 15:12 25.27924 51.61432 27 ft 15 kts 339°
2026-05-07 15:12 25.28021 51.61388 27 ft 14 kts 337°
2026-05-07 15:13 25.28102 51.61392 27 ft 10 kts 45°
2026-05-07 15:13 25.28105 51.61442 28 ft 5 kts 113°
2026-05-07 15:13 25.28088 51.61475 28 ft 5 kts 123°
2026-05-07 15:13 25.28064 51.61510 28 ft 6 kts 136°
2026-05-07 15:14 25.28029 51.61547 27 ft 8 kts 137°
2026-05-07 15:14 25.27986 51.61589 27 ft 8 kts 129°
2026-05-07 15:14 25.27964 51.61610 27 ft 0 kts 150°
2026-05-07 15:15 25.27849 51.61663 28 ft 46 kts 158°
2026-05-07 15:15 25.27373 51.61874 28 ft 101 kts 159°
2026-05-07 15:15 25.26565 51.62228 28 ft 145 kts 158°
2026-05-07 15:16 25.25517 51.62679 32 ft 176 kts 158°
2026-05-07 15:16 25.24352 51.63189 503 ft 177 kts 159°
2026-05-07 15:16 25.23161 51.63716 1003 ft 193 kts 159°
2026-05-07 15:16 25.21890 51.64346 1507 ft 206 kts 145°
2026-05-07 15:17 25.20921 51.65597 1905 ft 230 kts 124°
2026-05-07 15:17 25.19961 51.67152 2389 ft 259 kts 125°
2026-05-07 15:17 25.18861 51.68794 3339 ft 264 kts 129°
2026-05-07 15:17 25.17696 51.70361 4497 ft 269 kts 129°
2026-05-07 15:18 25.16472 51.72000 4958 ft 281 kts 128°
2026-05-07 15:18 25.15245 51.73676 5074 ft 280 kts 127°
2026-05-07 15:18 25.14046 51.75323 6232 ft 272 kts 127°
2026-05-07 15:18 25.12903 51.76974 7225 ft 276 kts 119°
2026-05-07 15:19 25.12366 51.79018 8255 ft 278 kts 95°
2026-05-07 15:19 25.12640 51.81131 9258 ft 283 kts 70°
2026-05-07 15:19 25.13614 51.83068 9903 ft 299 kts 58°
2026-05-07 15:19 25.14759 51.85018 9991 ft 309 kts 58°
2026-05-07 15:20 25.16002 51.87110 10011 ft 344 kts 58°
2026-05-07 15:20 25.17344 51.89409 10014 ft 363 kts 58°
2026-05-07 15:20 25.18713 51.91773 10008 ft 369 kts 58°
2026-05-07 15:20 25.20106 51.94168 10006 ft 371 kts 58°
2026-05-07 15:21 25.21503 51.96563 10014 ft 372 kts 58°
2026-05-07 15:21 25.22903 51.98969 9995 ft 372 kts 58°
2026-05-07 15:21 25.24297 52.01368 10016 ft 372 kts 58°
2026-05-07 15:21 25.25695 52.03775 10015 ft 372 kts 58°
2026-05-07 15:22 25.27092 52.06180 10047 ft 374 kts 58°
2026-05-07 15:22 25.28477 52.08568 10916 ft 372 kts 58°
2026-05-07 15:22 25.29884 52.10993 11741 ft 379 kts 58°
2026-05-07 15:22 25.31317 52.13465 12551 ft 384 kts 58°
2026-05-07 15:23 25.32757 52.15950 13333 ft 391 kts 58°
2026-05-07 15:23 25.34234 52.18496 14077 ft 397 kts 58°
2026-05-07 15:23 25.35485 52.21219 14775 ft 400 kts 74°
2026-05-07 15:23 25.36119 52.24224 15496 ft 404 kts 79°
2026-05-07 15:24 25.36680 52.27292 16252 ft 408 kts 80°
2026-05-07 15:24 25.37241 52.30390 16959 ft 413 kts 80°
2026-05-07 15:24 25.37837 52.33517 17658 ft 418 kts 80°
2026-05-07 15:24 25.38444 52.36671 18324 ft 422 kts 80°
2026-05-07 15:25 25.39044 52.39867 18923 ft 427 kts 80°
2026-05-07 15:25 25.39644 52.43095 19494 ft 431 kts 80°
2026-05-07 15:25 25.40257 52.46360 20054 ft 436 kts 79°
2026-05-07 15:25 25.40877 52.49654 20675 ft 438 kts 79°
2026-05-07 15:26 25.41502 52.52983 21000 ft 446 kts 79°
2026-05-07 15:26 25.42127 52.56337 20993 ft 442 kts 79°
2026-05-07 15:26 25.42430 52.59632 20998 ft 419 kts 94°
2026-05-07 15:26 25.42127 52.62753 20989 ft 399 kts 100°
2026-05-07 15:27 25.41688 52.65705 20984 ft 380 kts 101°
2026-05-07 15:27 25.41304 52.68569 20984 ft 363 kts 97°
2026-05-07 15:27 25.41077 52.71292 20981 ft 347 kts 96°
2026-05-07 15:27 25.40865 52.73886 20978 ft 331 kts 97°
2026-05-07 15:28 25.40611 52.76359 20976 ft 316 kts 98°
2026-05-07 15:28 25.40359 52.78717 20970 ft 302 kts 98°
2026-05-07 15:28 25.40132 52.80996 20976 ft 296 kts 98°
2026-05-07 15:28 25.39911 52.83258 20982 ft 296 kts 98°
2026-05-07 15:29 25.39685 52.85530 20988 ft 299 kts 98°
2026-05-07 15:29 25.39454 52.87821 20983 ft 301 kts 98°
2026-05-07 15:29 25.39221 52.90144 20852 ft 305 kts 98°
2026-05-07 15:29 25.38990 52.92456 20809 ft 300 kts 98°
2026-05-07 15:30 25.38762 52.94734 20799 ft 297 kts 98°
2026-05-07 15:30 25.38533 52.97004 20803 ft 297 kts 98°
2026-05-07 15:30 25.38300 52.99308 20801 ft 298 kts 98°
2026-05-07 15:30 25.38073 53.01553 20804 ft 299 kts 98°
2026-05-07 15:31 25.37839 53.03878 20806 ft 300 kts 98°
2026-05-07 15:31 25.37607 53.06170 20805 ft 300 kts 98°
2026-05-07 15:31 25.37375 53.08459 20807 ft 300 kts 98°
2026-05-07 15:31 25.37142 53.10749 20802 ft 300 kts 98°
2026-05-07 15:32 25.36904 53.13077 20823 ft 314 kts 98°
2026-05-07 15:32 25.36648 53.15573 20837 ft 341 kts 98°
2026-05-07 15:32 25.36371 53.18278 20840 ft 367 kts 98°
2026-05-07 15:32 25.36076 53.21184 20846 ft 393 kts 98°
2026-05-07 15:33 25.35755 53.24315 20846 ft 416 kts 98°
2026-05-07 15:33 25.35420 53.27570 20843 ft 437 kts 98°
2026-05-07 15:33 25.35070 53.30981 20840 ft 454 kts 98°
2026-05-07 15:33 25.34711 53.34470 20829 ft 459 kts 98°
2026-05-07 15:34 25.34348 53.37991 20820 ft 461 kts 98°
2026-05-07 15:34 25.33983 53.41514 20818 ft 462 kts 98°
2026-05-07 15:34 25.33616 53.45042 20817 ft 462 kts 98°
2026-05-07 15:34 25.33248 53.48568 20816 ft 462 kts 98°
2026-05-07 15:35 25.32879 53.52101 20815 ft 462 kts 98°
2026-05-07 15:35 25.32510 53.55637 20814 ft 463 kts 98°
2026-05-07 15:35 25.32139 53.59164 20815 ft 463 kts 98°
2026-05-07 15:35 25.31762 53.62744 20817 ft 463 kts 98°
2026-05-07 15:36 25.31391 53.66275 20816 ft 463 kts 98°
2026-05-07 15:36 25.31017 53.69812 20817 ft 463 kts 98°
2026-05-07 15:36 25.30643 53.73343 20815 ft 463 kts 98°
2026-05-07 15:36 25.30391 53.75726 20814 ft 463 kts 98°
2026-05-07 15:37 25.30016 53.79256 20815 ft 463 kts 98°
2026-05-07 15:37 25.29638 53.82799 20814 ft 463 kts 98°
2026-05-07 15:37 25.29257 53.86366 20814 ft 463 kts 98°
2026-05-07 15:37 25.28879 53.89899 20812 ft 463 kts 98°
2026-05-07 15:38 25.28496 53.93470 20814 ft 462 kts 98°
2026-05-07 15:38 25.28116 53.96998 20813 ft 462 kts 98°
2026-05-07 15:38 25.27737 54.00526 20813 ft 462 kts 98°
2026-05-07 15:38 25.27355 54.04053 20812 ft 462 kts 98°
2026-05-07 15:39 25.26974 54.07574 20812 ft 462 kts 98°
2026-05-07 15:39 25.26592 54.11104 20811 ft 462 kts 98°
2026-05-07 15:39 25.26204 54.14672 20813 ft 462 kts 98°
2026-05-07 15:39 25.25820 54.18195 20809 ft 462 kts 98°
2026-05-07 15:40 25.25434 54.21719 20809 ft 462 kts 98°
2026-05-07 15:40 25.25044 54.25288 20808 ft 461 kts 98°
2026-05-07 15:40 25.24663 54.28756 20808 ft 461 kts 98°
2026-05-07 15:40 25.24273 54.32314 20808 ft 461 kts 98°
2026-05-07 15:41 25.23885 54.35832 20809 ft 461 kts 98°
2026-05-07 15:41 25.23496 54.39345 20806 ft 461 kts 98°
2026-05-07 15:41 25.23107 54.42860 20808 ft 461 kts 98°
2026-05-07 15:41 25.22717 54.46372 20810 ft 461 kts 98°
2026-05-07 15:42 25.22327 54.49887 20809 ft 461 kts 98°
2026-05-07 15:42 25.21937 54.53392 20716 ft 457 kts 98°
2026-05-07 15:42 25.21547 54.56883 20278 ft 447 kts 98°
2026-05-07 15:42 25.21174 54.60217 19882 ft 439 kts 98°
2026-05-07 15:43 25.20804 54.63514 19520 ft 427 kts 98°
2026-05-07 15:43 25.20439 54.66764 19137 ft 415 kts 98°
2026-05-07 15:43 25.20088 54.69884 18784 ft 405 kts 98°
2026-05-07 15:43 25.19749 54.72883 18443 ft 395 kts 98°
2026-05-07 15:44 25.19408 54.75898 18100 ft 385 kts 98°
2026-05-07 15:44 25.19081 54.78793 17748 ft 376 kts 98°
2026-05-07 15:44 25.18757 54.81653 17409 ft 366 kts 98°
2026-05-07 15:44 25.18444 54.84407 17089 ft 359 kts 98°
2026-05-07 15:45 25.18133 54.87135 16937 ft 357 kts 98°
2026-05-07 15:45 25.17821 54.89871 16674 ft 363 kts 98°
2026-05-07 15:45 25.17508 54.92615 16369 ft 357 kts 98°
2026-05-07 15:45 25.17199 54.95318 16058 ft 354 kts 98°
2026-05-07 15:46 25.16577 55.00743 15462 ft 356 kts 98°
2026-05-07 15:46 25.16266 55.03449 15150 ft 349 kts 98°
2026-05-07 15:46 25.15955 55.06153 14846 ft 350 kts 98°
2026-05-07 15:47 25.15652 55.08778 14548 ft 352 kts 98°
2026-05-07 15:47 25.15339 55.11490 14234 ft 346 kts 98°
2026-05-07 15:47 25.15033 55.14137 13920 ft 344 kts 98°
2026-05-07 15:47 25.14729 55.16765 13624 ft 346 kts 98°
2026-05-07 15:48 25.14423 55.19398 13300 ft 346 kts 98°
2026-05-07 15:48 25.14115 55.22045 12982 ft 341 kts 98°
2026-05-07 15:48 25.13818 55.24600 12688 ft 339 kts 98°
2026-05-07 15:48 25.13515 55.27196 12395 ft 342 kts 98°
2026-05-07 15:49 25.13209 55.29812 12094 ft 344 kts 98°
2026-05-07 15:49 25.12905 55.32423 11792 ft 336 kts 98°
2026-05-07 15:49 25.12604 55.34996 11509 ft 340 kts 98°
2026-05-07 15:49 25.12301 55.37571 11207 ft 335 kts 98°
2026-05-07 15:50 25.12005 55.40086 10917 ft 326 kts 98°
2026-05-07 15:50 25.11719 55.42528 10641 ft 316 kts 98°
2026-05-07 15:50 25.11439 55.44906 10368 ft 308 kts 98°
2026-05-07 15:50 25.11013 55.47169 10108 ft 298 kts 116°
2026-05-07 15:51 25.09970 55.49137 9885 ft 300 kts 123°
2026-05-07 15:51 25.08884 55.51123 9633 ft 301 kts 123°
2026-05-07 15:51 25.07803 55.53066 9363 ft 296 kts 123°
2026-05-07 15:51 25.06713 55.55003 9119 ft 297 kts 123°
2026-05-07 15:52 25.05645 55.56908 8873 ft 288 kts 123°
2026-05-07 15:52 25.04625 55.58733 8675 ft 272 kts 123°
2026-05-07 15:52 25.03656 55.60465 8458 ft 259 kts 123°
2026-05-07 15:52 25.02740 55.62125 8254 ft 248 kts 123°
2026-05-07 15:53 25.01865 55.63716 8031 ft 238 kts 123°
2026-05-07 15:53 25.01019 55.65244 7845 ft 229 kts 123°
2026-05-07 15:53 25.00200 55.66718 7655 ft 222 kts 123°
2026-05-07 15:53 24.99386 55.68166 7513 ft 222 kts 123°
2026-05-07 15:54 24.98566 55.69625 7383 ft 225 kts 123°
2026-05-07 15:54 24.98007 55.71223 7193 ft 226 kts 92°
2026-05-07 15:54 24.98491 55.72797 7044 ft 215 kts 50°
2026-05-07 15:54 24.99696 55.73577 6941 ft 194 kts 14°
2026-05-07 15:55 25.01013 55.73555 6825 ft 190 kts 338°
2026-05-07 15:55 25.02204 55.72905 6831 ft 193 kts 330°
2026-05-07 15:55 25.03392 55.72238 6857 ft 195 kts 331°
2026-05-07 15:55 25.04564 55.71585 6859 ft 185 kts 331°
2026-05-07 15:56 25.05704 55.70894 6840 ft 190 kts 323°
2026-05-07 15:56 25.06670 55.69889 6840 ft 192 kts 310°
2026-05-07 15:56 25.07401 55.68696 6829 ft 181 kts 301°
2026-05-07 15:56 25.08076 55.67505 6850 ft 188 kts 300°
2026-05-07 15:57 25.08742 55.66301 6829 ft 174 kts 300°
2026-05-07 15:57 25.09371 55.65167 6827 ft 180 kts 300°
2026-05-07 15:57 25.10055 55.63926 6604 ft 197 kts 300°
2026-05-07 15:57 25.10774 55.62621 6084 ft 202 kts 301°
2026-05-07 15:58 25.11517 55.61278 5543 ft 208 kts 301°
2026-05-07 15:58 25.12285 55.59901 4895 ft 215 kts 301°
2026-05-07 15:58 25.13072 55.58486 4249 ft 219 kts 300°
2026-05-07 15:58 25.13603 55.57527 3858 ft 219 kts 300°
2026-05-07 15:59 25.14381 55.56119 3339 ft 208 kts 300°
2026-05-07 15:59 25.15093 55.54841 3044 ft 184 kts 300°
2026-05-07 15:59 25.15737 55.53678 2826 ft 174 kts 300°
2026-05-07 15:59 25.16362 55.52551 2608 ft 170 kts 299°
2026-05-07 16:00 25.16968 55.51452 2404 ft 164 kts 299°
2026-05-07 16:00 25.17547 55.50409 2207 ft 155 kts 299°
2026-05-07 16:00 25.18105 55.49399 2018 ft 153 kts 299°
2026-05-07 16:00 25.18652 55.48412 1821 ft 148 kts 298°
2026-05-07 16:01 25.19190 55.47441 1637 ft 149 kts 298°
2026-05-07 16:01 25.19726 55.46469 1447 ft 147 kts 299°
2026-05-07 16:01 25.20259 55.45502 1274 ft 148 kts 299°
2026-05-07 16:01 25.20807 55.44507 1079 ft 154 kts 300°
2026-05-07 16:02 25.21363 55.43511 892 ft 151 kts 301°
2026-05-07 16:02 25.21914 55.42515 722 ft 154 kts 301°
2026-05-07 16:02 25.22477 55.41494 523 ft 155 kts 301°
2026-05-07 16:02 25.23023 55.40503 325 ft 148 kts 301°
2026-05-07 16:03 25.23564 55.39523 125 ft 149 kts 302°
2026-05-07 16:03 25.24061 55.38626 57 ft 118 kts 302°
2026-05-07 16:03 25.24396 55.38054 50 ft 69 kts 302°
2026-05-07 16:03 25.24577 55.37694 42 ft 45 kts 291°
2026-05-07 16:04 25.24627 55.37428 39 ft 19 kts 275°
2026-05-07 16:04 25.24639 55.37262 39 ft 17 kts 289°
2026-05-07 16:04 25.24665 55.37168 38 ft 6 kts 259°
2026-05-07 16:04 25.24654 55.37143 37 ft 2 kts 237°
2026-05-07 16:05 25.24654 55.37139 38 ft 0 kts 253°
2026-05-07 16:05 25.24654 55.37138 38 ft 0 kts 254°
2026-05-07 16:05 25.24656 55.37131 38 ft 1 kts 296°
2026-05-07 16:05 25.24687 55.37095 37 ft 11 kts 325°
2026-05-07 16:06 25.24773 55.36996 36 ft 21 kts 305°
2026-05-07 16:06 25.24789 55.36863 34 ft 15 kts 233°
2026-05-07 16:06 25.24724 55.36825 34 ft 8 kts 205°
2026-05-07 16:06 25.24677 55.36794 34 ft 8 kts 211°
2026-05-07 16:07 25.24635 55.36755 34 ft 6 kts 237°
2026-05-07 16:07 25.24633 55.36733 34 ft 4 kts 272°
2026-05-07 16:07 25.24635 55.36688 33 ft 8 kts 274°
2026-05-07 16:07 25.24637 55.36659 33 ft 0 kts 274°